Flag for U.S.A. Weather past 2 weeks in Austin, Texas, U.S.A.

Now
53 °F

Clear.


Feels Like: 53 °F
Forecast: 54 / 75 °F
Wind: No wind

Location: Camp Mabry / Austin City

Current Time: Jan 29, 2015 at 5:29:54 AM

Latest Report: Jan 29, 2015 at 4:51 AM


Visibility: 10 mi

Pressure: 30.13 "Hg

Humidity: 93%

Dew point: 51 °F

Location of AustinLocation

Historic Weather in Austin — Graph

°F

Austin temperature yesterday

Maximum temperature yesterday: 81 °F (at 1:51 PM)
Minimum temperature yesterday: 43 °F (at 7:51 AM)
Average temperature yesterday: 62 °F

Past Weeks' High & Low Weather Summary

 TemperatureHumidityPressure
High81 °F (Jan 27, 3:51 PM)100% (Jan 22, 1:56 AM)30.41 "Hg (Jan 22, 1:56 AM)
Low36 °F (Jan 24, 5:51 AM)20% (Jan 18, 1:51 PM)29.85 "Hg (Jan 20, 3:51 PM)
Average53 °F66%30.17 "Hg
* Reported Jan 14 3:51 AM — Jan 29 3:51 AM, Austin, Weather by CustomWeather, © 2014

Note: Actual official high and low records may vary slightly from our data, if they occured in-between our weather recording intervals... More about our weather records

Advertising

Austin weather history for previous 24 hours

 ConditionsComfort  
Time TempWeatherWind HumidityBarometerVisibility
3:51 AM
Jan 29
54 °FClear.No wind93%30.12 "Hg10 mi
2:51 AM55 °FClear.No wind87%30.11 "Hg10 mi
1:51 AM56 °FClear.3 mph84%30.12 "Hg10 mi
12:51 AM58 °FClear.3 mph78%30.12 "Hg10 mi
11:51 PM
Jan 28
59 °FClear.5 mph69%30.12 "Hg10 mi
10:51 PM60 °FClear.3 mph60%30.12 "Hg10 mi
9:51 PM64 °FClear.6 mph49%30.11 "Hg10 mi
8:51 PM66 °FClear.5 mph39%30.10 "Hg10 mi
7:51 PM68 °FClear.5 mph36%30.08 "Hg10 mi
6:51 PM71 °FClear.7 mph31%30.06 "Hg10 mi
5:51 PM75 °FSunny.6 mph26%30.06 "Hg10 mi
4:51 PM78 °FSunny.7 mph24%30.07 "Hg10 mi
3:51 PM79 °FSunny.10 mph22%30.06 "Hg10 mi
2:51 PM80 °FSunny.9 mph23%30.07 "Hg10 mi
1:51 PM81 °FSunny.8 mph23%30.09 "Hg10 mi
12:51 PM80 °FSunny.9 mph26%30.11 "Hg10 mi
11:51 AM78 °FSunny.5 mph30%30.15 "Hg10 mi
10:51 AM69 °FSunny.3 mph42%30.17 "Hg10 mi
9:51 AM61 °FSunny.No wind52%30.17 "Hg10 mi
8:51 AM53 °FSunny.No wind77%30.17 "Hg10 mi
7:51 AM43 °FSunny.No wind93%30.16 "Hg10 mi
6:51 AM45 °FClear.No wind86%30.14 "Hg10 mi
5:51 AM45 °FClear.No wind86%30.11 "Hg10 mi
Weather by CustomWeather, © 2014

See weather overviewHow to use our weather pages